Find Starlink 4297

NORAD ID: 53543 Int'l Des: 2022-101 Owner: SPXS Country: US Constellation: starlink operational
LEOCIRCULAR

实时位置

正在加载3D地球...

关于 Starlink 4297

正在加载描述...

即将过境

Passes for default location (London). Set your location on the main map for personalized predictions.

高度历史

Loading altitude history...

两行轨道根数

1 53543U 22101S 26125.41205686 .00000451 00000-0 46422-4 0 9996
2 53543 53.2167 169.5495 0001059 86.4919 273.6194 15.08834822205557
Epoch: May 5, 2026 • Age: 14 hours

当前状态

高度 550.5 km
速度 7.59 km/s
星下点 -32.82°S, 85.77°W
发射日期 Aug 19, 2022
运行时间 3.7 years
类型 internet

技术详情

分类 Payload
质量 300.00 kg
干质量 290.00 kg
总质量 300.00 kg
长度 0.20 m
直径 2.80 m
跨度 9.00 m
形状 Box + pan
制造商 SPXS
平台类型 Starlink
阶段状态 In Orbit
所有者/国家 SPXS/US

Most Searched